Location: Calvatone
(45.1167°N, 10.4333°E)
Time: 11:11:05
(UTC+00:00)

AO-85 - Pass Details

Date: 08 December 2023
Orbit: 516 x 753 km, 64.8° (Epoch: 04 January)

Event Time Altitude Azimuth Distance (km) Brightness Sun altitude
Rises 17:55:47 0° 332° (NNW) 2,855 ? -23.7°
Reaches altitude 10° 17:58:25 10° 348° (NNW) 1,991 ? -24.2°
Enters shadow 17:59:07 13° 354° (N) 1,796 ? -24.3°
